www.pogodaiklimat.ru

Погода и климат >> Архив погоды >> Россия >> Ненецкий АО >> Варандей


ПОГОДА в Варандее

  • Прогноз погоды в Варандее
  • Монитор погоды в Варандее

АРХИВ ПОГОДЫ в Варандее

Время (UTC), дата Ветер
(напр.,м/с)
 
Видим.   Явления Облачность Т
(С)
Тd
(С)
f
(%)
Тe
(С)
Тes
(С)
Комфортность P
(гПа)
Po
(гПа)
Тmin
(С)
Tmax
(С)
R
(мм)
R24
(мм)
S
(см)
18 13.06 З 10-13
{15}
н/о н/о +1.5 +0.4 92 -6 -6 1006.6 1005.7
21 13.06 З 10-13
{14}
н/о н/о +1.3 +0.8 96 -7 -7 1006.4 1005.5
00 14.06 З 9-11
{13}
н/о н/о +2.0 -0.1 86 -5 -5 1006.4 1005.5
03 14.06 Ю 9-11
{12}
н/о н/о +2.3 +1.4 94 -5 -5 1006.5 1005.6 +1.1 0.0
06 14.06 З 9-11
{13}
20 км н/о +2.0 -0.1 86 -5 -5 1006.3 1005.5
09 14.06 ЮЗ 10-12
{13}
20 км 10/10 300 м
[Cb cap]
+2.0 +0.2 88 -6 -6 1006.1 1005.3
12 14.06 ЮЗ 11-13
{13}
10 км {ливн. осадки} 10/10 300 м
[Cb cap]
+2.7 +2.0 95 -5 -5 1005.8 1005.0
15 14.06 ЮЗ 10-11
{13}
20 км в посл. час ливневой дождь {морось} 10/10 300 м
[Cb cap]
+3.0 +1.6 91 -4 -4 1004.0 1003.2 +3.0 0.3
18 14.06 ЮЗ 10-12
{13}
10 км слаб. ливневой дождь 10/10 300 м
[Cb cap]
+3.0 +2.2 94 -4 -4 1001.3 1000.5
21 14.06 ЮЗ 9-11
{13}
10 км слаб. ливневой дождь 10/10 300 м
[Cb cap]
+2.9 +2.6 98 -4 -4 998.9 998.1
00 15.06 З 9-11
{12}
10 км слаб. ливневой дождь 10/10 300 м
[Cb cap]
+1.6 +1.1 96 -6 -6 997.9 997.1
03 15.06 З 9-11
{11}
10 км слаб. ливневой дождь 10/10 300 м
[Cb cap]
+2.3 +1.7 96 -5 -5 997.4 996.6 +1.6 1 0
06 15.06 З 7
{11}
10 км слаб. ливневой дождь 10/10 300 м
[Cb cap]
+2.6 +1.8 94 -4 -4 998.4 997.6
09 15.06 СЗ 6 10 км {ливн. осадки} 10/10 300 м
[Cb cap]
+3.2 +1.7 90 -3 -3 999.6 998.8
12 15.06 З 8-10
{10}
10 км {ливн. осадки} 10/10 300 м
[Cb cap]
+2.4 +1.1 91 -4 -4 1000.5 999.7
15 15.06 З 9-11
{12}
20 км {ливн. осадки} 9/9 300 м
[Cb cap Ci ing]
+2.7 +0.4 85 -4 -4 1000.4 999.6 +3.3 0.3
18 15.06 З 7
{11}
20 км {ливн. осадки} 9/9 300 м
[Cb cap Ci ing]
+2.5 +1.3 92 -4 -4 999.5 998.7
21 15.06 ЮЗ 6 10 км слаб. ливневой дождь 10/10 200 м
[Cb cap]
+2.4 +2.3 99 -4 -4 997.1 996.3
00 16.06 ЮЗ 9-10
{11}
4000 м слаб. морось 10/10 200 м
[St]
+2.6 +2.5 99 -5 -5 995.8 995.0
03 16.06 ЮЗ 7
{11}
н/о {ливн. осадки, морось} н/о +3.4 +2.6 94 -3 -3 994.8 994.0 +1.8 1
06 16.06 Ю 7 10 км слаб. ливневой дождь {морось} 10/10 300 м
[Cb cap]
+3.8 +3.7 99 -2 -2 993.5 992.7
09 16.06 ЮЗ 8-11
{12}
10 км слаб. дождь 10/10 200 м
[Frnb Ns]
+4.1 +3.4 95 -2 -2 992.9 992.1
12 16.06 ЮЗ 8-10
{11}
10 км слаб. ливневой дождь 10/10 300 м
[Cb cap]
+3.2 +2.3 94 -3 -3 993.5 992.7
15 16.06 Ю 8-10
{12}
10 км слаб. ливневой дождь 10/10 300 м
[Cb cap]
+2.6 +1.9 95 -4 -4 993.1 992.3 +4.2 2
18 16.06 ЮЗ 9-11
{12}
10 км слаб. ливневой дождь 10/10 300 м
[Cb cap]
+2.3 +1.6 95 -5 -5 992.6 991.8
21 16.06 ЮЗ 8-10
{11}
20 км {ливн. осадки} 10/10 300 м
[Cb cap]
+2.2 +1.1 92 -5 -5 991.4 990.6
00 17.06 ЮЗ 11-13
{13}
10 км крупа {ливн. осадки} 10/10 300 м
[Cb cap]
+1.9 +1.5 97 -6 -6 990.8 990.0
03 17.06 ЮЗ 10-12
{14}
н/о {ливн. осадки} н/о +2.4 +1.4 93 -5 -5 991.1 990.3 +1.6 0.5
06 17.06 ЮЗ 11-13
{14}
10 км слаб. ливневой дождь 10/10 200 м
[Cb cap]
+3.0 +2.1 94 -5 -5 992.1 991.3
09 17.06 ЮЗ 11-14
{14}
10 км слаб. ливневой дождь 10/10 300 м
[Cb cap]
+3.5 +2.0 90 -4 -4 993.3 992.5
12 17.06 ЮЗ 11-13
{15}
20 км {ливн. осадки} 9/8 300 м
[Cb cap Ci ing]
+3.6 +1.8 88 -4 -4 994.7 993.9
15 17.06 ЮЗ 11-14
{15}
10 км 9/9 300 м
[Cb cap]
+3.2 +1.1 86 -4 -4 995.3 994.5 +3.7 0.0
18 17.06 ЮЗ 10-12
{15}
10 км 10/10 300 м
[Cb cap]
+2.7 +0.1 83 -5 -5 994.7 993.9
21 17.06 ЮЗ 11-13
{16}
10 км в посл. час ливневой снег 10/10 200 м
[Cb cap]
+1.9 +0.9 93 -6 -6 993.7 992.9
00 18.06 ЮЗ 9-11
{14}
н/о {ливн. осадки} н/о +2.1 +0.5 89 -5 -5 993.9 993.1
03 18.06 ЮЗ 8
{12}
10 км {ливн. осадки} 10/10 300 м
[Cb cap]
+1.8 +1.6 99 -5 -5 994.4 993.6 +1.0 0.0
06 18.06 З 9-11
{13}
10 км слаб. ливневой дождь 10/10 300 м
[Cb cap]
+1.9 +1.2 95 -6 -6 995.1 994.3
09 18.06 З 10-12
{12}
20 км {ливн. осадки} 10/10 300 м
[Cb cap]
+3.0 +2.2 94 -4 -4 996.1 995.3
12 18.06 З 10-13
{14}
20 км {ливн. осадки} 10/9 300 м
[Cb cap]
+2.9 +1.7 92 -4 -4 998.0 997.2
15 18.06 СВ 8
{13}
20 км 9/9 300 м
[Cu Sc]
+2.4 +1.3 92 -4 -4 999.5 998.7 +3.4 0.4
18 18.06 СВ 8
{12}
10 км слаб. ливневой дождь 10/10 300 м
[Cb cap]
+1.9 +1.1 94 -5 -5 1000.1 999.3
21 18.06 З 6 10 км слаб. ливневой дождь 10/10 300 м
[Cb cap]
+1.7 +1.3 97 -5 -5 1000.5 999.7
00 19.06 СЗ 4 10 км {ливн. осадки} 10/10 300 м
[Cb cap]
+1.7 +0.8 94 -4 -4 1001.0 1000.1
03 19.06 СВ 8 н/о {ливн. осадки} н/о +2.0 +1.9 99 -5 -5 1001.3 1000.4 +1.3 0.6
06 19.06 З 6 10 км {ливн. осадки} 10/10 300 м
[Cb cap]
+2.8 +2.2 96 -3 -3 1001.9 1001.1
09 19.06 З 9-10
{11}
10 км слаб. ливневой дождь 10/10 300 м
[Cb cap]
+2.3 +1.6 95 -5 -5 1003.4 1002.6
12 19.06 З 9-11
{13}
20 км {ливн. осадки} 10/10 300 м
[Cb cap]
+2.5 +0.2 85 -5 -5 1004.5 1003.7
15 19.06 З 8-11
{12}
10 км 10/10 300 м
[Cb cap]
+2.4 +0.6 88 -4 -4 1005.0 1004.2 +2.9 0.0
18 19.06 З 9-10
{13}
10 км {ливн. осадки} 10/10 300 м
[Cb cap]
+2.1 +0.6 90 -5 -5 1004.2 1003.4
21 19.06 З 8-11
{13}
10 км {ливн. осадки} 9/8 200 м
[Cb cap Ci sp]
+2.0 +0.5 90 -5 -5 1003.8 1003.0
00 20.06 З 8-10
{12}
10 км {ливн. осадки} 9/8 200 м
[Cb cap Ci sp]
+1.5 +0.5 93 -6 -6 1003.5 1002.7
03 20.06 З 7
{11}
20 км {ливн. осадки} 9/9 300 м
[Cb cap]
+2.1 0.0 86 -4 -4 1003.3 1002.5 +1.0 0.0
06 20.06 З 9-11
{11}
20 км в посл. час ливневой снег 8/8 300 м
[Cb cap]
+3.0 +0.7 85 -4 -4 1003.6 1002.8
09 20.06 З 8-10
{11}
20 км 8/8 300 м
[Cu Sc]
+3.8 +1.0 82 -2 -2 1004.5 1003.7
12 20.06 З 9-12
{12}
20 км 8/8 300 м
[Cu Sc]
+3.6 +1.5 86 -3 -3 1005.3 1004.5

 

Местоположение метеостанции Варандей (Ненецкий АО, Россия): широта 68.82 долгота 58.02 высота над уровнем моря 7 м.

В архиве по умолчанию представлена погода в Варандее за последнюю неделю. Архивные данные за месяц целиком и за предыдущие месяцы, начиная с января 2011 года, Вы можете получить, выбрав интересующий диапазон дат из раскрывающегося списка и нажав кнопку "Ввод!".


*Определитесь, кто Вы:
робот инопланетянин человек

Внимание! Время в таблицах - всемирное. Для получения местного времени необходимо прибавить поправку, которая равна 3 ч.

Смотрите также архив погоды в соседних городах и на ближайших метеорологических станциях:

Погода на Мысе Константиновском (Ненецкий АО, Россия) (106 км)
Погода на Мысе Белый Нос (Ненецкий АО, Россия) (122 км)
Погода в Хорей-Вере (Ненецкий АО, Россия) (155 км)
Погода в Ходоварихе (Ненецкий АО, Россия) (172 км)
Погода в Амдерме (Ненецкий АО, Россия) (179 км)
Погода в Имени Федорова (Ненецкий АО, Россия) (186 км)
Погода в Харуте (Ненецкий АО, Россия) (228 км)
Погода в Нарьян-Маре (Ненецкий АО, Россия) (245 км)
Погода в Сенгейском Шаре (Ненецкий АО, Россия) (277 км)
Погода в Усть-Каре (Ненецкий АО, Россия) (279 км)

Пояснения к столбцам:

Ветер - указаны скорость ветра в м/с - средняя за 10 мин, порывы в срок и между сроками (в фигурных скобках) и направление, откуда дует ветер: С - северный, СВ - северо-восточный, В - восточный, ЮВ - юго-восточный, Ю - южный, ЮЗ - юго-западный, З - западный, СЗ - северо-западный.
Видимость - горизонтальная дальность видимости в метрах или километрах. При видимости от 1 до 10 км при отсутствии осадков обычно наблюдается дымка, при ухудшении видимости до 1 км и менее - туман. В сухую погоду видимость может ухудшаться дымом, пылью или мглою.
Явления - указаны атмосферные явления, наблюдавшиеся в срок или в последний час перед сроком; фигурными скобками обозначены явления, наблюдавшиеся между сроками (за 1-3 часа до срока); квадратными скобками обозначены град или гололедные отложения с указанием их диаметра в мм.
Облачность - указаны через наклонную черту общая и нижняя облачность в баллах и высота нижней границы облаков в метрах; квадратными скобками обозначены формы облаков: Ci - перистые, Cs - перисто-слоистые, Cc - перисто-кучевые, Ac - высококучевые, As - высокослоистые, Sc - слоисто-кучевые, Ns - слоисто-дождевые, Cu - кучевые, Cb - кучево-дождевые. Подробнее классификацию облаков см. в Атласе облаков (PDF).
T - Температура воздуха - температура, измеренная на высоте 2 м над землей.
Td - Температура точки росы - температура, при понижении до которой содержащийся в воздухе водяной пар достигнет насыщения.
f - Относительная влажность воздуха - влажноcть воздуха, измеренная на высоте 2 м над землей.
Te - Эффективная температура - температура, которую ощущает одетый по сезону человек в тени. Характеристика душности погоды. При расчете учитывается влияние влажности воздуха и скорости ветра на теплоощущения человека.
Tes - Эффективная температура на солнце - температура, которую ощущает человек, с поправкой на солнечный нагрев. Характеристика знойности погоды. Зависит от высоты солнца над горизонтом, облачности и скорости ветра. Ночью, в пасмурную погоду, а также при ветре 12 м/с и более поправка равна нулю.
P - Атмосферное давление - приведенное к уровню моря атмосферное давление.
Po - Атмосферное давление - измеренное на уровне метеостанции атмосферное давление.
Tmin - Минимальная температура - минимум температуры воздуха на высоте 2 м над землей.
Tmax - Максимальная температура - максимум температуры воздуха на высоте 2 м над землей.
R - Количество осадков - Количество выпавших осадков за период времени, мм. При наведении курсора мыши на число - период времени, за который выпало указанное количество осадков.
R24 - Количество осадков - Количество выпавших осадков за 24 часа, мм.
S - Снежный покров - Высота снежного покрова, см. При наведении курсора мыши на число - состояние снежного покрова и степень покрытия местности в баллах.